SCP
-0 -0 -0 -0 -0 -0 -0 -0 -0 -0 -0 -0 -0 -0 -0 -0 -0 0 0 0 0 0 0 0 0 0 0 0 0 0 0 0 0 0 0 0 0 0 0 0 -0 -0 0 0 0
-0 -0 -0 0 -0 -0 -0 0 -0 -0 -0 -0 -0 -0 -0 -0 0 0 0 0 0 0 0 0 0 -0 -0 0 0 -0 0 0 0 0 0 0 0 0 0 0 0 0 0 0 0
-0 -0 -0 0 0 -0 -0 0 -0 -0 -0 -0 -0 -0 -0 0 0 0 0 0 0 0 0 -0 0 -0 -0 -0 -0 -0 0 0 -0 0 0 0 0 0 0 0 0 0 0 0 0
-0 -0 0 0 0 -0 -0 0 -0 -0 -0 -0 -0 -0 -0 0 -0 0 0 0 0 0 0 0 0 -0 0 -0 -0 -0 -0 -0 0 0 0 0 0 -0 -0 -0 0 -0 0 0 0
-0 -0 0 0 0 -0 -0 0 -0 -0 -0 -0 -0 -0 0 0 0 0 0 0 0 0 0 -0 -0 -0 -0 -0 -0 -0 0 0 -0 -0 -0 -0 -0 0 -0 -0 -0 0 -0 0 0
0 0 0 0 0 0 -0 0 -0 -0 -0 -0 -0 -0 0 0 0 0 0 0 0 0 0 0 0 -0 -0 -0 0 0 0 0 0 0 0 0 0 0 -0 0 0 -0 -0 0 0
-0 0 -0 0 0 0 0 -0 0 -0 -0 -0 -0 0 0 0 0 0 0 0 0 0 0 -0 -0 -0 0 0 0 0 0 0 0 0 0 0 0 0 0 -0 0 0 0 0 0
0 0 -0 -0 0 0 0 -0 -0 -0 -0 0 0 0 0 0 0 0 0 0 0 0 0 0 0 0 -0 0 0 0 0 0 0 0 0 0 0 -0 0 0 -0 0 0 0 0
-0 0 -0 -0 -0 -0 -0 -0 0 0 -0 0 0 0 0 0 0 0 0 0 0 0 0 0 0 -0 -0 0 0 -0 0 0 0 0 0 0 0 0 0 -0 0 0 0 0 0
-0 -0 -0 -0 -0 -0 -0 0 -0 -0 -0 -0 0 0 0 0 0 0 0 0 0 0 0 0 0 -0 0 0 0 0 0 0 0 0 0 0 0 -0 0 -0 0 0 0 0 0
-0 -0 -0 -0 -0 -0 0 -0 0 0 0 0 0 0 0 0 0 0 0 0 0 0 0 -0 -0 0 -0 -0 0 0 0 0 0 0 0 0 0 0 -0 -0 0 0 0 0 0
-0 -0 -0 -0 -0 0 0 0 -0 0 0 0 0 0 0 0 0 0 0 0 0 -0 -0 -0 -0 -0 -0 0 0 0 0 0 0 0 0 0 0 0 0 0 0 0 0 0 0
0 -0 -0 -0 -0 -0 0 -0 0 -0 0 0 0 0 0 0 0 0 0 0 -0 -0 -0 -0 -0 -0 0 0 0 0 0 0 0 0 0 0 0 0 0 0 0 -0 -0 0 0
0 0 -0 -0 0 0 0 0 0 -0 0 0 0 0 0 0 0 0 0 0 0 -0 -0 -0 -0 -0 -0 -0 0 -0 0 0 0 0 0 0 0 0 0 0 -0 -0 -0 0 0
0 0 0 0 0 0 0 0 0 0 0 0 0 0 0 0 0 0 0 0 -0 -0 0 -0 -0 0 0 0 0 0 0 0 0 0 0 0 0 0 0 0 0 -0 -0 0 0
0 0 0 0 0 -0 -0 0 0 0 0 0 0 0 0 0 0 0 0 0 0 0 0 0 0 0 0 0 0 0 0 0 0 0 0 0 0 0 0 0 0 0 0 0 0
0 0 -0 0 0 0 0 0 0 0 0 0 0 0 0 0 0 0 0 0 -0 -0 0 0 0 0 0 0 0 0 0 0 0 0 0 0 0 0 0 0 0 0 0 0 0
0 -0 -0 0 0 0 0 0 0 0 0 0 0 0 0 0 0 0 0 0 0 0 0 0 0 0 0 0 0 0 0 0 0 0 0 0 0 -0 0 0 0 0 0 0 0
0 0 0 0 0 0 0 0 0 0 0 0 0 0 0 0 0 0 0 0 0 0 0 0 -0 0 0 0 0 0 0 0 0 0 0 0 0 0 0 0 0 0 0 0 0
0 0 0 0 0 0 0 0 0 0 0 0 0 0 -0 0 0 0 0 0 0 0 0 0 0 0 0 0 0 0 0 0 0 0 0 0 0 0 0 0 0 0 0 0 0
0 0 0 0 0 0 0 0 0 0 0 0 0 0 -0 0 0 0 0 0 0 0 0 0 0 0 0 0 0 0 0 0 0 0 0 0 0 0 0 0 0 0 0 0 0
0 0 0 0 0 0 0 0 0 0 0 0 0 0 0 0 0 0 0 0 0 0 0 0 0 0 0 0 0 0 0 0 0 0 0 0 0 0 0 0 0 0 0 0 0
0 0 0 0 0 0 0 0 0 0 0 0 0 0 0 0 0 0 0 0 0 0 0 0 0 0 0 0 0 0 0 0 0 0 0 0 0 0 0 0 0 0 0 0 0
0 0 0 0 0 0 0 0 0 0 0 0 0 0 0 0 0 0 0 0 0 0 0 0 0 0 0 0 0 0 0 0 0 0 0 0 0 0 0 0 0 0 0 0 0
0 0 0 0 0 0 0 0 0 0 0 0 0 0 0 0 0 0 0 0 0 0 0 0 0 0 0 0 0 0 0 0 0 0 0 0 0 0 0 0 0 0 0 0 0
0 0 0 0 0 0 0 0 0 0 0 0 0 0 0 0 0 0 0 0 0 0 0 0 0 0 0 0 0 0 0 0 0 0 0 0 -0 0 0 0 0 0 0 0 0
0 0 0 0 0 0 0 0 0 0 0 0 0 0 0 0 0 0 0 0 0 0 0 0 0 0 0 0 0 0 0 0 0 0 0 0 0 0 0 0 0 0 0 0 0
Wind_Speed_500mb
27 27 30 33 36 36 37 34 29 29 29 31 33 32 29 23 8 5 6 12 8 11 9 2 4 7 18 19 24 15 10 7 14 12 9 10 9 15 9 25 16 11 32 42 34
27 26 28 34 38 40 39 37 31 28 28 30 32 30 27 25 10 16 14 7 11 14 10 2 1 17 10 4 15 9 10 23 19 12 6 29 11 15 11 24 25 49 38 22 14
27 29 31 35 40 43 41 39 32 26 28 28 29 26 24 17 12 17 12 13 16 17 10 12 21 9 4 8 9 8 10 15 11 16 30 21 35 26 27 14 18 57 32 16 18
24 27 34 38 42 44 43 39 33 25 27 27 27 22 20 11 7 18 12 16 18 19 7 10 34 20 14 7 9 10 14 16 24 52 31 24 57 78 67 28 19 40 16 16 16
23 27 33 39 42 43 43 40 33 24 25 25 24 21 14 7 11 19 14 18 20 15 3 9 26 17 8 8 9 17 12 38 75 79 69 89 76 83 92 43 12 15 9 23 23
23 28 33 39 42 43 42 39 32 24 24 24 21 19 10 2 9 12 18 16 17 12 4 15 16 17 15 3 15 18 38 42 58 55 56 72 50 36 57 44 9 22 32 30 23
25 29 34 39 41 42 42 38 30 24 23 21 18 19 9 6 5 1 9 18 12 7 1 12 21 17 10 12 19 53 23 20 24 20 23 16 20 19 32 32 19 20 37 34 27
25 30 35 38 40 41 42 36 28 21 20 19 17 17 8 10 11 8 9 21 12 2 8 12 22 15 9 37 14 12 10 10 10 9 14 5 10 16 28 42 28 25 37 36 28
25 31 35 38 39 41 40 31 26 19 16 17 15 12 4 6 10 15 19 19 9 3 12 17 15 4 19 12 8 13 4 13 5 23 5 4 4 34 28 31 27 26 33 35 29
24 30 33 36 39 40 35 25 24 7 18 15 10 8 3 9 11 11 22 15 9 6 7 7 6 8 8 9 6 5 10 8 7 6 7 11 6 18 29 25 20 27 33 35 30
22 28 30 34 36 35 26 19 30 5 45 12 18 22 19 22 0 15 18 12 5 3 8 10 13 10 10 20 9 15 11 14 4 4 14 15 9 5 12 13 14 28 32 37 31
21 26 29 31 31 21 23 30 29 21 20 29 13 27 20 23 7 10 19 9 8 6 7 15 8 14 15 6 17 19 29 3 2 10 13 8 8 3 12 13 4 21 31 44 34
19 25 26 28 23 10 16 26 23 25 8 16 9 15 8 5 5 7 17 7 9 7 7 9 18 16 6 11 21 7 18 17 12 15 16 14 4 8 9 17 9 13 19 31 37
17 23 26 25 14 9 9 18 21 19 8 11 6 8 12 6 7 16 14 8 7 5 7 7 12 10 18 2 9 8 12 14 26 8 6 6 6 9 7 14 20 28 27 29 34
17 23 25 21 20 11 19 18 20 10 6 0 6 2 8 13 0 12 21 13 11 7 8 16 13 6 5 12 9 8 22 14 8 10 10 4 5 3 3 9 14 23 36 27 23
19 23 26 22 19 10 19 16 14 10 3 8 7 4 5 4 4 4 16 11 2 8 3 13 9 6 2 14 14 21 15 16 8 6 7 10 5 8 8 13 9 21 32 29 32
23 24 25 24 10 12 14 11 9 5 10 3 7 2 4 3 1 3 10 8 7 7 8 14 11 5 18 23 8 15 12 6 5 8 7 9 3 12 11 11 14 30 35 42 37
25 26 27 22 17 9 7 10 1 5 11 12 6 6 7 5 2 3 6 3 4 10 5 4 12 7 7 6 17 9 13 10 6 5 5 8 4 7 10 20 15 29 47 46 46
25 25 22 11 13 10 2 5 10 7 10 13 6 8 3 1 3 5 5 10 11 12 12 8 9 10 6 4 11 7 7 8 14 5 6 5 10 5 12 9 25 45 52 52 44
22 19 8 5 15 12 9 9 7 9 15 11 4 5 11 4 4 4 2 7 9 18 16 11 5 5 5 9 17 14 9 7 7 8 3 6 8 9 10 14 15 29 45 51 51
14 7 2 16 15 7 6 12 11 21 19 7 5 1 5 4 11 6 7 7 5 8 12 10 7 6 0 3 9 8 3 12 10 7 8 2 11 11 20 21 22 44 60 60 54
7 3 6 25 5 4 5 10 14 10 11 9 6 3 3 4 10 12 11 8 5 14 14 4 10 5 6 2 2 5 8 10 10 5 4 8 11 5 20 38 49 42 58 62 55
5 5 18 31 3 4 11 9 12 6 4 8 9 6 2 4 5 11 9 7 6 7 13 10 4 6 15 12 5 6 8 8 10 7 9 11 11 7 10 26 50 47 63 64 55
4 3 5 23 7 10 3 10 9 10 15 15 10 2 4 9 8 6 5 6 7 9 15 10 6 12 14 13 6 3 7 10 10 7 9 10 6 4 10 15 35 45 65 60 52
6 3 3 4 8 10 10 5 9 10 6 11 3 6 0 6 10 5 4 3 10 5 6 9 7 6 5 10 6 8 9 15 11 11 12 11 18 17 20 30 60 62 58 58 59
6 3 1 6 15 5 12 9 13 10 7 11 6 5 5 6 8 2 6 3 5 5 5 4 4 3 4 13 4 4 3 13 4 9 8 11 8 17 38 25 37 58 64 67 65
6 5 2 3 7 7 7 12 5 4 20 34 21 6 6 8 11 14 11 8 4 12 5 5 9 6 5 8 10 9 6 8 7 7 15 11 17 19 14 36 54 54 71 74 68
Wind_Direction_500mb
342 345 348 350 351 352 346 341 336 331 332 337 339 344 347 353 357 20 100 102 120 56 93 250 279 262 264 223 210 188 77 196 172 156 217 131 79 61 57 104 77 74 119 125 95
339 347 352 350 350 350 348 343 339 333 333 338 339 348 348 358 64 74 92 119 66 78 85 111 167 297 290 166 178 140 136 198 185 173 145 81 57 97 64 70 76 105 107 112 85
337 345 350 348 348 347 346 342 341 336 332 337 341 349 349 8 88 37 50 70 88 95 93 32 328 327 107 133 147 153 173 184 154 118 65 81 52 58 98 56 102 109 127 160 89
338 343 343 344 346 344 344 342 341 338 331 337 342 349 347 30 96 23 36 88 103 104 101 15 29 60 49 57 122 101 42 62 76 67 66 55 66 53 37 33 108 123 127 120 103
336 339 340 339 341 342 342 341 339 338 331 336 342 346 357 24 47 36 57 110 115 129 117 32 42 28 42 28 18 42 43 73 85 82 84 84 79 58 34 7 37 183 122 126 116
328 334 336 336 338 339 340 339 335 334 329 333 340 341 336 15 62 31 54 121 138 146 73 37 27 57 107 279 65 98 99 90 94 96 101 98 83 97 38 21 196 164 150 132 113
322 328 332 334 335 336 338 336 331 332 326 329 334 332 275 208 277 306 90 132 149 150 304 18 359 4 353 86 123 119 104 86 115 134 140 80 34 120 105 161 178 165 154 125 124
316 325 332 333 333 336 336 334 328 326 323 328 324 325 257 213 274 217 147 147 150 227 334 6 353 8 87 122 91 119 78 109 10 92 337 96 169 206 159 193 241 166 135 134 121
313 325 332 333 333 336 336 333 328 314 338 332 315 324 258 272 266 207 163 143 135 10 340 325 331 91 126 100 33 358 139 106 78 2 165 103 149 207 193 205 237 143 143 140 131
315 324 331 332 334 337 341 341 344 17 2 328 319 326 14 323 338 191 159 151 123 336 343 35 106 66 25 73 242 139 111 57 94 312 48 79 107 176 182 230 227 145 146 158 149
317 322 329 331 336 346 23 29 13 351 333 275 290 288 295 338 206 166 174 179 184 290 24 34 47 299 238 217 134 116 110 119 173 196 69 75 82 236 248 232 252 170 162 172 163
315 319 325 327 336 3 33 38 18 329 305 305 271 275 290 305 305 167 170 182 149 88 12 14 314 288 280 129 109 102 109 53 12 87 88 103 94 311 269 272 218 168 186 180 170
314 317 322 325 333 357 39 27 8 340 279 293 256 264 287 353 254 215 177 156 98 70 71 154 251 309 128 120 120 173 149 186 148 108 53 115 357 287 294 293 201 166 168 184 186
315 318 324 327 330 352 11 7 355 339 48 283 233 238 220 232 277 227 205 133 46 136 161 267 286 321 124 183 120 135 153 138 131 94 179 195 282 210 229 271 250 238 213 181 188
308 316 324 327 317 321 326 333 338 329 32 227 213 148 188 180 263 188 197 198 156 142 77 257 296 353 107 213 151 132 111 129 98 85 117 347 113 197 97 251 233 222 197 189 189
299 306 314 319 312 289 314 314 325 35 335 337 194 167 102 243 332 89 182 191 120 108 2 263 296 126 219 27 115 125 83 50 64 81 47 309 89 306 215 203 209 207 214 207 189
296 298 300 307 301 319 333 330 37 124 328 285 213 123 115 164 238 45 139 162 146 87 345 332 329 325 128 76 332 80 71 31 1 12 215 312 60 227 249 219 186 185 193 182 185
297 295 294 300 277 260 333 44 147 258 258 283 147 97 168 171 192 124 82 164 76 92 102 116 352 7 352 134 175 172 145 146 233 186 260 331 293 278 231 183 166 184 176 181 182
299 296 302 297 238 190 134 60 221 223 293 313 41 97 270 212 112 63 182 190 202 163 146 143 293 299 342 99 127 172 37 164 108 63 80 280 297 336 74 126 136 164 171 179 181
308 309 299 233 172 162 79 240 258 239 333 339 114 150 205 212 125 135 119 242 201 195 160 199 116 314 294 55 26 111 155 40 24 126 224 284 273 235 185 173 173 159 179 183 184
314 313 245 171 153 154 161 240 278 287 339 355 331 315 175 200 184 159 218 276 193 151 128 133 119 255 140 84 175 37 49 51 108 111 146 219 260 221 195 187 181 178 188 189 194
301 25 157 175 88 47 165 204 312 310 323 307 273 278 256 175 203 197 219 242 88 158 146 171 133 150 231 82 185 137 162 130 116 216 127 143 276 293 229 193 181 183 198 197 197
288 281 192 180 128 298 290 275 262 300 254 302 296 241 268 270 155 164 202 314 194 124 158 180 24 53 349 354 350 181 162 102 109 86 189 137 260 3 212 192 184 184 192 195 190
262 22 152 215 229 141 346 274 271 280 261 222 245 144 354 16 353 123 150 5 66 89 105 107 115 154 183 211 170 207 160 165 126 117 175 220 239 223 223 184 189 196 189 193 192
218 245 146 250 258 208 177 273 310 316 269 300 292 103 68 13 17 40 49 9 43 63 90 103 140 176 219 265 207 236 183 179 170 175 148 222 189 205 205 198 194 192 193 192 194
204 200 170 285 297 212 179 246 229 253 230 304 225 238 146 180 180 278 139 163 177 13 84 26 176 123 340 327 303 64 243 159 124 110 58 144 259 206 202 191 189 197 197 197 200
187 218 261 308 341 107 218 248 285 350 293 244 247 154 203 230 210 264 267 260 189 156 151 100 121 83 243 334 345 352 187 179 143 155 140 167 224 162 175 207 206 201 204 207 205
Wind_Speed_850mb
27 27 30 33 36 36 37 34 29 29 29 31 33 32 29 23 8 5 6 12 8 11 9 2 4 7 18 19 24 15 10 7 14 12 9 10 9 15 9 25 16 11 32 42 34
27 26 28 34 38 40 39 37 31 28 28 30 32 30 27 25 10 16 14 7 11 14 10 2 1 17 10 4 15 9 10 23 19 12 6 29 11 15 11 24 25 49 38 22 14
27 29 31 35 40 43 41 39 32 26 28 28 29 26 24 17 12 17 12 13 16 17 10 12 21 9 4 8 9 8 10 15 11 16 30 21 35 26 27 14 18 57 32 16 18
24 27 34 38 42 44 43 39 33 25 27 27 27 22 20 11 7 18 12 16 18 19 7 10 34 20 14 7 9 10 14 16 24 52 31 24 57 78 67 28 19 40 16 16 16
23 27 33 39 42 43 43 40 33 24 25 25 24 21 14 7 11 19 14 18 20 15 3 9 26 17 8 8 9 17 12 38 75 79 69 89 76 83 92 43 12 15 9 23 23
23 28 33 39 42 43 42 39 32 24 24 24 21 19 10 2 9 12 18 16 17 12 4 15 16 17 15 3 15 18 38 42 58 55 56 72 50 36 57 44 9 22 32 30 23
25 29 34 39 41 42 42 38 30 24 23 21 18 19 9 6 5 1 9 18 12 7 1 12 21 17 10 12 19 53 23 20 24 20 23 16 20 19 32 32 19 20 37 34 27
25 30 35 38 40 41 42 36 28 21 20 19 17 17 8 10 11 8 9 21 12 2 8 12 22 15 9 37 14 12 10 10 10 9 14 5 10 16 28 42 28 25 37 36 28
25 31 35 38 39 41 40 31 26 19 16 17 15 12 4 6 10 15 19 19 9 3 12 17 15 4 19 12 8 13 4 13 5 23 5 4 4 34 28 31 27 26 33 35 29
24 30 33 36 39 40 35 25 24 7 18 15 10 8 3 9 11 11 22 15 9 6 7 7 6 8 8 9 6 5 10 8 7 6 7 11 6 18 29 25 20 27 33 35 30
22 28 30 34 36 35 26 19 30 5 45 12 18 22 19 22 0 15 18 12 5 3 8 10 13 10 10 20 9 15 11 14 4 4 14 15 9 5 12 13 14 28 32 37 31
21 26 29 31 31 21 23 30 29 21 20 29 13 27 20 23 7 10 19 9 8 6 7 15 8 14 15 6 17 19 29 3 2 10 13 8 8 3 12 13 4 21 31 44 34
19 25 26 28 23 10 16 26 23 25 8 16 9 15 8 5 5 7 17 7 9 7 7 9 18 16 6 11 21 7 18 17 12 15 16 14 4 8 9 17 9 13 19 31 37
17 23 26 25 14 9 9 18 21 19 8 11 6 8 12 6 7 16 14 8 7 5 7 7 12 10 18 2 9 8 12 14 26 8 6 6 6 9 7 14 20 28 27 29 34
17 23 25 21 20 11 19 18 20 10 6 0 6 2 8 13 0 12 21 13 11 7 8 16 13 6 5 12 9 8 22 14 8 10 10 4 5 3 3 9 14 23 36 27 23
19 23 26 22 19 10 19 16 14 10 3 8 7 4 5 4 4 4 16 11 2 8 3 13 9 6 2 14 14 21 15 16 8 6 7 10 5 8 8 13 9 21 32 29 32
23 24 25 24 10 12 14 11 9 5 10 3 7 2 4 3 1 3 10 8 7 7 8 14 11 5 18 23 8 15 12 6 5 8 7 9 3 12 11 11 14 30 35 42 37
25 26 27 22 17 9 7 10 1 5 11 12 6 6 7 5 2 3 6 3 4 10 5 4 12 7 7 6 17 9 13 10 6 5 5 8 4 7 10 20 15 29 47 46 46
25 25 22 11 13 10 2 5 10 7 10 13 6 8 3 1 3 5 5 10 11 12 12 8 9 10 6 4 11 7 7 8 14 5 6 5 10 5 12 9 25 45 52 52 44
22 19 8 5 15 12 9 9 7 9 15 11 4 5 11 4 4 4 2 7 9 18 16 11 5 5 5 9 17 14 9 7 7 8 3 6 8 9 10 14 15 29 45 51 51
14 7 2 16 15 7 6 12 11 21 19 7 5 1 5 4 11 6 7 7 5 8 12 10 7 6 0 3 9 8 3 12 10 7 8 2 11 11 20 21 22 44 60 60 54
7 3 6 25 5 4 5 10 14 10 11 9 6 3 3 4 10 12 11 8 5 14 14 4 10 5 6 2 2 5 8 10 10 5 4 8 11 5 20 38 49 42 58 62 55
5 5 18 31 3 4 11 9 12 6 4 8 9 6 2 4 5 11 9 7 6 7 13 10 4 6 15 12 5 6 8 8 10 7 9 11 11 7 10 26 50 47 63 64 55
4 3 5 23 7 10 3 10 9 10 15 15 10 2 4 9 8 6 5 6 7 9 15 10 6 12 14 13 6 3 7 10 10 7 9 10 6 4 10 15 35 45 65 60 52
6 3 3 4 8 10 10 5 9 10 6 11 3 6 0 6 10 5 4 3 10 5 6 9 7 6 5 10 6 8 9 15 11 11 12 11 18 17 20 30 60 62 58 58 59
6 3 1 6 15 5 12 9 13 10 7 11 6 5 5 6 8 2 6 3 5 5 5 4 4 3 4 13 4 4 3 13 4 9 8 11 8 17 38 25 37 58 64 67 65
6 5 2 3 7 7 7 12 5 4 20 34 21 6 6 8 11 14 11 8 4 12 5 5 9 6 5 8 10 9 6 8 7 7 15 11 17 19 14 36 54 54 71 74 68
Wind_Direction_850mb
342 345 348 350 351 352 346 341 336 331 332 337 339 344 347 353 357 20 100 102 120 56 93 250 279 262 264 223 210 188 77 196 172 156 217 131 79 61 57 104 77 74 119 125 95
339 347 352 350 350 350 348 343 339 333 333 338 339 348 348 358 64 74 92 119 66 78 85 111 167 297 290 166 178 140 136 198 185 173 145 81 57 97 64 70 76 105 107 112 85
337 345 350 348 348 347 346 342 341 336 332 337 341 349 349 8 88 37 50 70 88 95 93 32 328 327 107 133 147 153 173 184 154 118 65 81 52 58 98 56 102 109 127 160 89
338 343 343 344 346 344 344 342 341 338 331 337 342 349 347 30 96 23 36 88 103 104 101 15 29 60 49 57 122 101 42 62 76 67 66 55 66 53 37 33 108 123 127 120 103
336 339 340 339 341 342 342 341 339 338 331 336 342 346 357 24 47 36 57 110 115 129 117 32 42 28 42 28 18 42 43 73 85 82 84 84 79 58 34 7 37 183 122 126 116
328 334 336 336 338 339 340 339 335 334 329 333 340 341 336 15 62 31 54 121 138 146 73 37 27 57 107 279 65 98 99 90 94 96 101 98 83 97 38 21 196 164 150 132 113
322 328 332 334 335 336 338 336 331 332 326 329 334 332 275 208 277 306 90 132 149 150 304 18 359 4 353 86 123 119 104 86 115 134 140 80 34 120 105 161 178 165 154 125 124
316 325 332 333 333 336 336 334 328 326 323 328 324 325 257 213 274 217 147 147 150 227 334 6 353 8 87 122 91 119 78 109 10 92 337 96 169 206 159 193 241 166 135 134 121
313 325 332 333 333 336 336 333 328 314 338 332 315 324 258 272 266 207 163 143 135 10 340 325 331 91 126 100 33 358 139 106 78 2 165 103 149 207 193 205 237 143 143 140 131
315 324 331 332 334 337 341 341 344 17 2 328 319 326 14 323 338 191 159 151 123 336 343 35 106 66 25 73 242 139 111 57 94 312 48 79 107 176 182 230 227 145 146 158 149
317 322 329 331 336 346 23 29 13 351 333 275 290 288 295 338 206 166 174 179 184 290 24 34 47 299 238 217 134 116 110 119 173 196 69 75 82 236 248 232 252 170 162 172 163
315 319 325 327 336 3 33 38 18 329 305 305 271 275 290 305 305 167 170 182 149 88 12 14 314 288 280 129 109 102 109 53 12 87 88 103 94 311 269 272 218 168 186 180 170
314 317 322 325 333 357 39 27 8 340 279 293 256 264 287 353 254 215 177 156 98 70 71 154 251 309 128 120 120 173 149 186 148 108 53 115 357 287 294 293 201 166 168 184 186
315 318 324 327 330 352 11 7 355 339 48 283 233 238 220 232 277 227 205 133 46 136 161 267 286 321 124 183 120 135 153 138 131 94 179 195 282 210 229 271 250 238 213 181 188
308 316 324 327 317 321 326 333 338 329 32 227 213 148 188 180 263 188 197 198 156 142 77 257 296 353 107 213 151 132 111 129 98 85 117 347 113 197 97 251 233 222 197 189 189
299 306 314 319 312 289 314 314 325 35 335 337 194 167 102 243 332 89 182 191 120 108 2 263 296 126 219 27 115 125 83 50 64 81 47 309 89 306 215 203 209 207 214 207 189
296 298 300 307 301 319 333 330 37 124 328 285 213 123 115 164 238 45 139 162 146 87 345 332 329 325 128 76 332 80 71 31 1 12 215 312 60 227 249 219 186 185 193 182 185
297 295 294 300 277 260 333 44 147 258 258 283 147 97 168 171 192 124 82 164 76 92 102 116 352 7 352 134 175 172 145 146 233 186 260 331 293 278 231 183 166 184 176 181 182
299 296 302 297 238 190 134 60 221 223 293 313 41 97 270 212 112 63 182 190 202 163 146 143 293 299 342 99 127 172 37 164 108 63 80 280 297 336 74 126 136 164 171 179 181
308 309 299 233 172 162 79 240 258 239 333 339 114 150 205 212 125 135 119 242 201 195 160 199 116 314 294 55 26 111 155 40 24 126 224 284 273 235 185 173 173 159 179 183 184
314 313 245 171 153 154 161 240 278 287 339 355 331 315 175 200 184 159 218 276 193 151 128 133 119 255 140 84 175 37 49 51 108 111 146 219 260 221 195 187 181 178 188 189 194
301 25 157 175 88 47 165 204 312 310 323 307 273 278 256 175 203 197 219 242 88 158 146 171 133 150 231 82 185 137 162 130 116 216 127 143 276 293 229 193 181 183 198 197 197
288 281 192 180 128 298 290 275 262 300 254 302 296 241 268 270 155 164 202 314 194 124 158 180 24 53 349 354 350 181 162 102 109 86 189 137 260 3 212 192 184 184 192 195 190
262 22 152 215 229 141 346 274 271 280 261 222 245 144 354 16 353 123 150 5 66 89 105 107 115 154 183 211 170 207 160 165 126 117 175 220 239 223 223 184 189 196 189 193 192
218 245 146 250 258 208 177 273 310 316 269 300 292 103 68 13 17 40 49 9 43 63 90 103 140 176 219 265 207 236 183 179 170 175 148 222 189 205 205 198 194 192 193 192 194
204 200 170 285 297 212 179 246 229 253 230 304 225 238 146 180 180 278 139 163 177 13 84 26 176 123 340 327 303 64 243 159 124 110 58 144 259 206 202 191 189 197 197 197 200
187 218 261 308 341 107 218 248 285 350 293 244 247 154 203 230 210 264 267 260 189 156 151 100 121 83 243 334 345 352 187 179 143 155 140 167 224 162 175 207 206 201 204 207 205